sat.trackr.live / text

‹ back to catalog

STARLINK-34612

NORAD 64773 · 2025-147U

PAYLOAD ACTIVE UNKNOWN

§ Identity

Operator
Country
US
Launch date
2025-07-08
Launch site
AFETR
Launch vehicle
Mass (kg)
RCS (m²)

Purposes: comms

External: N2YO · Heavens-Above · Gunter

§ Orbital elements

Epoch: 2026-05-24T23:28:08.139072Z

Period
93.85 min
Inclination
53.1581°
Eccentricity
0.0000890
Mean motion
15.34401373 rev/d
Perigee alt
462.1 km
Apogee alt
463.3 km
Semi-major
6,840.8 km
B*
1.0005e-3
RAAN
247.5599°
Arg perigee
60.9162°
Mean anomaly
299.1930°
Rev number
5,044

§ Raw data

STARLINK-346121 64773U 25147U   26144.97787198  .00033580  00000+0  10005-2 0  99952 64773  53.1581 247.5599 0000890  60.9162 299.1930 15.34401373 50441

JSON: /api/v1/satellites/64773 · /tle

For live sub-satellite position, see the globe view (requires WebGL).

§ Visibility from observer

Set your observer location to see the next 7 days of passes ≥ 10°. The values pass through the URL so the page stays shareable.

No JS? Fill the form by hand. The geolocation button needs JavaScript.